Weather in Izmaylovo

Russia / Ulyanovsk Oblast     53°43′15″N   47°14′41″E
temp.,
°C
wind,
m/s
gust,
m/s
humid.,
%
clouds,
%
prec.,
mm/h
press.,
hPa
HPBL,
m
17 may, tue
tue1701:00+8w4895100 0.2 1003321
04:00+8w389393 0.7 1002384
07:00+7wsw499295 0.3 1002419
10:00+10w577145 0.6 10021202
13:00+10w577278 1.6 10021201
16:00+10w5668100 2.4 10021270
19:00+9w367873 0.8 1002547
22:00+5wsw118847 0.8 100211
18 may, wed
wed1801:00+4w11925 0.0 100210
04:00+3w229677 0.0 100231
07:00+6wnw3692100 0.0 1003286
10:00+10wnw567487 0.2 10031076
13:00+10wnw6872100 0.3 10041340
16:00+8nw478687 0.4 1007693
19:00+9nw4887100 0.3 1008557
22:00+7wnw3893100 0.4 1010411
19 may, thu
thu1901:00+5w3994100 0.1 1010233
04:00+6wnw4991100 0.3 1010770
07:00+6wnw5987100 0.1 1011800
10:00+7wnw687299 0.3 10121276
13:00+9w6858100 0.1 10121514
16:00+8w7117485 0.4 10111212
19:00+8w588441 1.1 1011784
22:00+5wnw279516 1.4 1013220
20 may, fri
fri2001:00+2wnw26961 0.0 1013121
04:00+1w26940 0.0 1013122
07:00+4wnw488652 0.0 1014440
10:00+6wnw4782100 0.8 10141039
13:00+7nw586489 1.1 10131559
16:00+9nnw785776 1.9 10131720
19:00+7nnw69719 0.6 10141037
22:00+3nw39904 0.8 1015235
21 may, sat
sat2101:00+1wnw26935 0.0 1015123
04:000wnw22945 0.0 101534
07:00+4wnw36822 0.0 1015246
10:00+9nw35535 0.0 10131558
13:00+10nnw344892 0.1 10121721
16:00+10nnw3355100 0.4 10111259
19:00+8nne3568100 0.3 1010540
22:00+5ene4979100 0.4 1010358